WZZ1212 EPWA-LDZA

Flight info

Callsign WZZ1212
Flight time 1h 13m
Altitude 38000
Route EVINA DCT SKARY DCT XOMBA DCT NEKIN
Aircraft A20N/M-SDE2E3FGHIRWXY/LB1

Departure

Time 2026-05-05 15:43
Airport Warsaw Chopin Airport (EPWA)

Arrival

Time 2026-05-05 16:57
Airport Zagreb Franjo Tuđman International Airport (LDZA)
Time Latitude Longitude Altitude Speed Heading
2026-05-05 15:19 52.17377 20.97048 335 ft 0 kts 242°
2026-05-05 15:31 52.17381 20.97059 333 ft 2 kts 237°
2026-05-05 15:31 52.17389 20.97082 333 ft 2 kts 241°
2026-05-05 15:32 52.17397 20.97106 335 ft 2 kts 245°
2026-05-05 15:32 52.17400 20.97132 334 ft 2 kts 299°
2026-05-05 15:32 52.17389 20.97151 334 ft 1 kts 327°
2026-05-05 15:32 52.17386 20.97154 334 ft 0 kts 329°
2026-05-05 15:36 52.17395 20.97146 333 ft 6 kts 330°
2026-05-05 15:36 52.17458 20.97092 337 ft 13 kts 332°
2026-05-05 15:36 52.17549 20.97013 336 ft 15 kts 333°
2026-05-05 15:36 52.17625 20.96903 335 ft 15 kts 271°
2026-05-05 15:37 52.17575 20.96754 335 ft 14 kts 238°
2026-05-05 15:37 52.17523 20.96608 335 ft 16 kts 239°
2026-05-05 15:37 52.17454 20.96464 335 ft 17 kts 242°
2026-05-05 15:37 52.17367 20.96417 338 ft 15 kts 154°
2026-05-05 15:38 52.17268 20.96505 335 ft 17 kts 152°
2026-05-05 15:38 52.17157 20.96601 337 ft 19 kts 151°
2026-05-05 15:38 52.17037 20.96707 338 ft 20 kts 150°
2026-05-05 15:38 52.16917 20.96813 336 ft 20 kts 152°
2026-05-05 15:39 52.16794 20.96915 335 ft 20 kts 152°
2026-05-05 15:39 52.16681 20.97020 334 ft 17 kts 140°
2026-05-05 15:39 52.16623 20.97194 336 ft 19 kts 114°
2026-05-05 15:39 52.16568 20.97393 336 ft 21 kts 115°
2026-05-05 15:40 52.16509 20.97600 334 ft 19 kts 115°
2026-05-05 15:40 52.16457 20.97780 334 ft 16 kts 127°
2026-05-05 15:40 52.16383 20.97780 337 ft 0 kts 205°
2026-05-05 15:41 52.16364 20.97766 338 ft 7 kts 204°
2026-05-05 15:41 52.16311 20.97709 334 ft 11 kts 237°
2026-05-05 15:42 52.16313 20.97644 336 ft 0 kts 291°
2026-05-05 15:42 52.16351 20.97506 336 ft 40 kts 293°
2026-05-05 15:43 52.16569 20.96733 339 ft 106 kts 294°
2026-05-05 15:43 52.16946 20.95373 364 ft 153 kts 292°
2026-05-05 15:43 52.17384 20.93868 868 ft 152 kts 292°
2026-05-05 15:43 52.17854 20.92304 1442 ft 158 kts 289°
2026-05-05 15:44 52.18293 20.90665 2084 ft 156 kts 281°
2026-05-05 15:44 52.18366 20.88854 2618 ft 168 kts 257°
2026-05-05 15:44 52.18081 20.86931 3286 ft 184 kts 252°
2026-05-05 15:44 52.17761 20.84792 3856 ft 205 kts 253°
2026-05-05 15:45 52.17409 20.82418 4484 ft 227 kts 253°
2026-05-05 15:45 52.17008 20.79784 5043 ft 251 kts 253°
2026-05-05 15:45 52.16599 20.77114 5569 ft 259 kts 253°
2026-05-05 15:45 52.16168 20.74270 6266 ft 263 kts 254°
2026-05-05 15:46 52.15503 20.71541 7392 ft 259 kts 237°
2026-05-05 15:46 52.14344 20.69302 8453 ft 261 kts 220°
2026-05-05 15:46 52.12909 20.67491 9491 ft 263 kts 218°
2026-05-05 15:46 52.11435 20.65653 10352 ft 273 kts 218°
2026-05-05 15:47 52.09870 20.63689 10781 ft 295 kts 218°
2026-05-05 15:47 52.08374 20.61802 11148 ft 313 kts 219°
2026-05-05 15:47 52.06634 20.59606 11971 ft 319 kts 219°
2026-05-05 15:47 52.04874 20.57388 12911 ft 321 kts 219°
2026-05-05 15:48 52.03118 20.55175 13747 ft 326 kts 219°
2026-05-05 15:48 52.01286 20.52867 14504 ft 332 kts 219°
2026-05-05 15:48 51.99468 20.50578 15244 ft 337 kts 219°
2026-05-05 15:48 51.97596 20.48224 15960 ft 343 kts 219°
2026-05-05 15:49 51.95596 20.46041 16688 ft 350 kts 210°
2026-05-05 15:49 51.93319 20.44541 17380 ft 359 kts 198°
2026-05-05 15:49 51.90821 20.43842 18071 ft 368 kts 188°
2026-05-05 15:49 51.88254 20.43475 18722 ft 372 kts 188°
2026-05-05 15:50 51.85661 20.43097 19380 ft 375 kts 188°
2026-05-05 15:50 51.83037 20.42705 20007 ft 380 kts 188°
2026-05-05 15:50 51.80428 20.42310 20633 ft 383 kts 188°
2026-05-05 15:50 51.77755 20.41903 21259 ft 388 kts 188°
2026-05-05 15:51 51.75055 20.41491 21859 ft 392 kts 188°
2026-05-05 15:51 51.72328 20.41074 22459 ft 396 kts 188°
2026-05-05 15:51 51.69569 20.40652 23048 ft 401 kts 188°
2026-05-05 15:51 51.66774 20.40226 23599 ft 405 kts 188°
2026-05-05 15:52 51.63961 20.39800 24140 ft 407 kts 188°
2026-05-05 15:52 51.61135 20.39372 24685 ft 409 kts 188°
2026-05-05 15:52 51.58285 20.38942 25193 ft 412 kts 188°
2026-05-05 15:52 51.55422 20.38509 25703 ft 415 kts 188°
2026-05-05 15:53 51.52548 20.38075 26204 ft 417 kts 188°
2026-05-05 15:53 51.49647 20.37637 26670 ft 420 kts 188°
2026-05-05 15:53 51.46724 20.37197 27163 ft 422 kts 188°
2026-05-05 15:53 51.43788 20.36755 27619 ft 425 kts 188°
2026-05-05 15:54 51.40858 20.36155 28083 ft 425 kts 193°
2026-05-05 15:54 51.37979 20.35039 28503 ft 426 kts 199°
2026-05-05 15:54 51.35194 20.33398 28915 ft 427 kts 206°
2026-05-05 15:54 51.32496 20.31384 29326 ft 428 kts 207°
2026-05-05 15:55 51.29790 20.29348 29736 ft 431 kts 207°
2026-05-05 15:55 51.27076 20.27319 30095 ft 433 kts 207°
2026-05-05 15:55 51.24331 20.25279 30444 ft 435 kts 207°
2026-05-05 15:55 51.21578 20.23242 30790 ft 437 kts 207°
2026-05-05 15:56 51.18813 20.21200 31206 ft 438 kts 207°
2026-05-05 15:56 51.16056 20.19168 31655 ft 437 kts 207°
2026-05-05 15:56 51.13295 20.17135 32115 ft 436 kts 207°
2026-05-05 15:56 51.10549 20.15116 32550 ft 435 kts 207°
2026-05-05 15:57 51.07807 20.13102 32998 ft 434 kts 207°
2026-05-05 15:57 51.05067 20.11092 33408 ft 433 kts 207°
2026-05-05 15:57 51.02334 20.09089 33817 ft 433 kts 207°
2026-05-05 15:57 50.99601 20.07090 34172 ft 432 kts 207°
2026-05-05 15:58 50.96917 20.05129 34487 ft 431 kts 207°
2026-05-05 15:58 50.94191 20.03139 34804 ft 431 kts 207°
2026-05-05 15:58 50.91472 20.01158 35125 ft 430 kts 207°
2026-05-05 15:58 50.88748 19.99175 35420 ft 430 kts 207°
2026-05-05 15:59 50.86033 19.97201 35701 ft 430 kts 207°
2026-05-05 15:59 50.83312 19.95225 35989 ft 429 kts 207°
2026-05-05 15:59 50.80600 19.93259 36267 ft 429 kts 207°
2026-05-05 15:59 50.78103 19.91450 36520 ft 429 kts 207°
2026-05-05 16:00 50.75391 19.89489 36794 ft 429 kts 207°
2026-05-05 16:00 50.72676 19.87528 37067 ft 428 kts 207°
2026-05-05 16:00 50.69975 19.85580 37336 ft 427 kts 207°
2026-05-05 16:00 50.67396 19.83721 37549 ft 427 kts 207°
2026-05-05 16:01 50.64801 19.81854 37778 ft 427 kts 207°
2026-05-05 16:01 50.59509 19.78051 37809 ft 426 kts 207°
2026-05-05 16:02 50.54227 19.74267 37813 ft 426 kts 207°
2026-05-05 16:02 50.48830 19.70408 37815 ft 426 kts 206°
2026-05-05 16:03 50.43418 19.66550 37816 ft 426 kts 206°
2026-05-05 16:03 50.38145 19.62799 37820 ft 427 kts 206°
2026-05-05 16:04 50.35598 19.60991 37818 ft 428 kts 206°
2026-05-05 16:04 50.30371 19.57287 37822 ft 428 kts 206°
2026-05-05 16:05 50.25070 19.53540 37827 ft 429 kts 206°
2026-05-05 16:05 50.19751 19.49788 37828 ft 430 kts 206°
2026-05-05 16:06 50.14296 19.45951 37816 ft 429 kts 206°
2026-05-05 16:06 50.08950 19.42200 37817 ft 429 kts 206°
2026-05-05 16:07 50.03517 19.38397 37826 ft 429 kts 206°
2026-05-05 16:07 49.98098 19.34613 37827 ft 430 kts 206°
2026-05-05 16:08 49.92644 19.30815 37835 ft 429 kts 206°
2026-05-05 16:08 49.87201 19.27034 37837 ft 429 kts 206°
2026-05-05 16:09 49.81742 19.23250 37845 ft 428 kts 206°
2026-05-05 16:09 49.76290 19.19482 37842 ft 428 kts 206°
2026-05-05 16:10 49.70888 19.15757 37849 ft 427 kts 206°
2026-05-05 16:10 49.65575 19.12100 37865 ft 428 kts 206°
2026-05-05 16:11 49.60157 19.08381 37868 ft 428 kts 206°
2026-05-05 16:12 49.49249 19.00926 37867 ft 429 kts 206°
2026-05-05 16:13 49.35751 18.92788 37868 ft 432 kts 202°
2026-05-05 16:13 49.30167 18.89665 37863 ft 431 kts 202°
2026-05-05 16:14 49.19140 18.83523 37866 ft 432 kts 202°
2026-05-05 16:15 49.07897 18.77292 37864 ft 433 kts 202°
2026-05-05 16:16 48.96633 18.71080 37871 ft 434 kts 202°
2026-05-05 16:17 48.88343 18.66528 37874 ft 434 kts 202°
2026-05-05 16:18 48.80043 18.61986 37876 ft 434 kts 202°
2026-05-05 16:19 48.71506 18.57331 37871 ft 434 kts 202°
2026-05-05 16:19 48.62990 18.52705 37872 ft 434 kts 202°
2026-05-05 16:20 48.51587 18.46536 37871 ft 435 kts 202°
2026-05-05 16:22 48.37469 18.38937 37865 ft 436 kts 202°
2026-05-05 16:23 48.26103 18.32855 37867 ft 437 kts 202°
2026-05-05 16:23 48.17549 18.28295 37867 ft 437 kts 202°
2026-05-05 16:24 48.11811 18.25245 37868 ft 437 kts 202°
2026-05-05 16:25 48.03204 18.20684 37871 ft 437 kts 201°
2026-05-05 16:25 47.94581 18.16132 37873 ft 438 kts 201°
2026-05-05 16:26 47.83094 18.10091 37841 ft 439 kts 201°
2026-05-05 16:27 47.80204 18.08576 37585 ft 439 kts 201°
2026-05-05 16:27 47.77344 18.07003 37309 ft 437 kts 205°
2026-05-05 16:27 47.74623 18.04999 37042 ft 435 kts 212°
2026-05-05 16:27 47.72096 18.02556 36773 ft 434 kts 217°
2026-05-05 16:28 47.69620 17.99961 36511 ft 435 kts 217°
2026-05-05 16:28 47.67134 17.97371 36246 ft 435 kts 217°
2026-05-05 16:28 47.64684 17.94828 35994 ft 435 kts 217°
2026-05-05 16:28 47.62199 17.92258 35735 ft 435 kts 217°
2026-05-05 16:29 47.59714 17.89693 35480 ft 435 kts 217°
2026-05-05 16:29 47.57225 17.87128 35227 ft 436 kts 217°
2026-05-05 16:29 47.54733 17.84564 34976 ft 436 kts 217°
2026-05-05 16:29 47.53077 17.82862 34815 ft 436 kts 217°
2026-05-05 16:30 47.50583 17.80300 34571 ft 436 kts 217°
2026-05-05 16:30 47.48090 17.77742 34329 ft 436 kts 217°
2026-05-05 16:30 47.45597 17.75187 34087 ft 436 kts 217°
2026-05-05 16:30 47.43090 17.72621 33865 ft 436 kts 217°
2026-05-05 16:31 47.40595 17.70070 33589 ft 437 kts 217°
2026-05-05 16:31 47.38092 17.67513 33317 ft 438 kts 217°
2026-05-05 16:31 47.35575 17.64946 33043 ft 439 kts 217°
2026-05-05 16:31 47.33096 17.62420 32784 ft 440 kts 217°
2026-05-05 16:32 47.30571 17.59851 32513 ft 440 kts 217°
2026-05-05 16:32 47.28047 17.57287 32254 ft 442 kts 217°
2026-05-05 16:32 47.25509 17.54710 31991 ft 443 kts 217°
2026-05-05 16:32 47.22967 17.52133 31729 ft 443 kts 217°
2026-05-05 16:33 47.20415 17.49547 31475 ft 444 kts 217°
2026-05-05 16:33 47.17992 17.47095 31236 ft 446 kts 216°
2026-05-05 16:33 47.15470 17.44550 30988 ft 446 kts 217°
2026-05-05 16:33 47.12915 17.41972 30739 ft 446 kts 216°
2026-05-05 16:34 47.10456 17.39493 30505 ft 446 kts 216°
2026-05-05 16:34 47.07900 17.36918 30260 ft 444 kts 216°
2026-05-05 16:34 47.05345 17.34349 30017 ft 442 kts 216°
2026-05-05 16:34 47.02814 17.31807 29737 ft 440 kts 216°
2026-05-05 16:35 47.00404 17.29389 29473 ft 438 kts 216°
2026-05-05 16:35 46.97896 17.26874 29192 ft 437 kts 216°
2026-05-05 16:35 46.95392 17.24367 28915 ft 435 kts 216°
2026-05-05 16:35 46.92904 17.21880 28531 ft 433 kts 216°
2026-05-05 16:36 46.90417 17.19396 27921 ft 431 kts 216°
2026-05-05 16:36 46.87943 17.16928 27331 ft 427 kts 216°
2026-05-05 16:36 46.85505 17.14499 26768 ft 422 kts 216°
2026-05-05 16:36 46.83088 17.12092 26162 ft 417 kts 216°
2026-05-05 16:37 46.80702 17.09718 25586 ft 413 kts 216°
2026-05-05 16:37 46.78427 17.07460 25029 ft 409 kts 216°
2026-05-05 16:37 46.76081 17.05133 24445 ft 406 kts 216°
2026-05-05 16:37 46.73751 17.02823 23851 ft 403 kts 216°
2026-05-05 16:38 46.71441 17.00535 23189 ft 401 kts 216°
2026-05-05 16:38 46.69151 16.98271 22658 ft 395 kts 216°
2026-05-05 16:38 46.66921 16.96067 22092 ft 390 kts 216°
2026-05-05 16:38 46.64690 16.93864 21529 ft 385 kts 216°
2026-05-05 16:39 46.62480 16.91685 20964 ft 381 kts 215°
2026-05-05 16:39 46.60303 16.89540 20404 ft 377 kts 215°
2026-05-05 16:39 46.58136 16.87406 19844 ft 374 kts 215°
2026-05-05 16:39 46.55990 16.85297 19286 ft 371 kts 215°
2026-05-05 16:40 46.53855 16.83201 18724 ft 369 kts 215°
2026-05-05 16:40 46.51737 16.81123 18115 ft 368 kts 215°
2026-05-05 16:40 46.49623 16.79049 17581 ft 363 kts 214°
2026-05-05 16:40 46.47627 16.77093 17060 ft 359 kts 214°
2026-05-05 16:41 46.45572 16.75081 16518 ft 355 kts 214°
2026-05-05 16:41 46.43526 16.73079 15977 ft 352 kts 214°
2026-05-05 16:41 46.41503 16.71102 15443 ft 349 kts 214°
2026-05-05 16:41 46.39531 16.69164 14919 ft 346 kts 215°
2026-05-05 16:42 46.37559 16.67162 14388 ft 344 kts 215°
2026-05-05 16:42 46.35612 16.65159 13872 ft 341 kts 215°
2026-05-05 16:42 46.33677 16.63171 13302 ft 339 kts 215°
2026-05-05 16:42 46.31770 16.61220 12806 ft 335 kts 215°
2026-05-05 16:43 46.29863 16.59275 12284 ft 331 kts 215°
2026-05-05 16:43 46.27985 16.57366 11782 ft 328 kts 215°
2026-05-05 16:43 46.26122 16.55474 11276 ft 325 kts 215°
2026-05-05 16:43 46.24279 16.53604 10779 ft 323 kts 215°
2026-05-05 16:44 46.22466 16.51768 10343 ft 319 kts 215°
2026-05-05 16:44 46.20694 16.49973 10197 ft 305 kts 215°
2026-05-05 16:44 46.18989 16.48248 10078 ft 291 kts 215°
2026-05-05 16:44 46.17359 16.46599 9882 ft 282 kts 215°
2026-05-05 16:45 46.15765 16.44988 9630 ft 275 kts 215°
2026-05-05 16:45 46.14207 16.43417 9261 ft 273 kts 215°
2026-05-05 16:45 46.13781 16.42987 9162 ft 272 kts 215°
2026-05-05 16:46 46.12217 16.41410 8780 ft 270 kts 215°
2026-05-05 16:46 46.10703 16.39885 8419 ft 268 kts 216°
2026-05-05 16:46 46.09162 16.38336 8043 ft 266 kts 216°
2026-05-05 16:47 46.07650 16.36815 7662 ft 264 kts 216°
2026-05-05 16:47 46.04679 16.33845 7283 ft 247 kts 212°
2026-05-05 16:47 46.03097 16.33052 7185 ft 239 kts 188°
2026-05-05 16:48 46.01472 16.33323 7105 ft 235 kts 163°
2026-05-05 16:48 46.00101 16.34542 6999 ft 233 kts 141°
2026-05-05 16:48 45.98955 16.36113 6900 ft 222 kts 141°
2026-05-05 16:48 45.97861 16.37601 6812 ft 211 kts 141°
2026-05-05 16:49 45.96679 16.38712 6571 ft 199 kts 171°
2026-05-05 16:49 45.95389 16.38698 6503 ft 175 kts 200°
2026-05-05 16:49 45.94396 16.37864 6421 ft 159 kts 226°
2026-05-05 16:49 45.93673 16.36755 6333 ft 146 kts 227°
2026-05-05 16:50 45.92975 16.35715 6105 ft 146 kts 227°
2026-05-05 16:50 45.92241 16.34632 5814 ft 166 kts 227°
2026-05-05 16:50 45.91419 16.33420 5496 ft 169 kts 227°
2026-05-05 16:50 45.90608 16.32227 5158 ft 165 kts 227°
2026-05-05 16:51 45.89831 16.31078 4857 ft 159 kts 226°
2026-05-05 16:51 45.89102 16.29921 4546 ft 151 kts 230°
2026-05-05 16:51 45.88436 16.28795 4214 ft 145 kts 230°
2026-05-05 16:51 45.87804 16.27728 3962 ft 139 kts 230°
2026-05-05 16:52 45.87192 16.26697 3683 ft 134 kts 230°
2026-05-05 16:52 45.86589 16.25686 3519 ft 136 kts 229°
2026-05-05 16:52 45.85939 16.24665 3396 ft 137 kts 227°
2026-05-05 16:52 45.85290 16.23670 3210 ft 136 kts 227°
2026-05-05 16:53 45.84643 16.22682 3023 ft 136 kts 226°
2026-05-05 16:53 45.83985 16.21679 2840 ft 139 kts 226°
2026-05-05 16:53 45.83338 16.20688 2654 ft 134 kts 226°
2026-05-05 16:53 45.82695 16.19705 2490 ft 138 kts 227°
2026-05-05 16:54 45.82045 16.18710 2300 ft 134 kts 226°
2026-05-05 16:54 45.81398 16.17721 2124 ft 138 kts 227°
2026-05-05 16:54 45.80751 16.16732 1944 ft 133 kts 227°
2026-05-05 16:54 45.80118 16.15768 1769 ft 134 kts 226°
2026-05-05 16:55 45.79465 16.14769 1596 ft 138 kts 227°
2026-05-05 16:55 45.78824 16.13792 1408 ft 132 kts 227°
2026-05-05 16:55 45.78186 16.12816 1227 ft 137 kts 226°
2026-05-05 16:55 45.77542 16.11825 1058 ft 137 kts 226°
2026-05-05 16:56 45.76913 16.10865 844 ft 128 kts 225°
2026-05-05 16:56 45.76317 16.09957 682 ft 125 kts 224°
2026-05-05 16:56 45.75719 16.09049 530 ft 126 kts 225°
2026-05-05 16:56 45.75119 16.08132 384 ft 127 kts 224°
2026-05-05 16:57 45.74576 16.07309 361 ft 83 kts 227°
2026-05-05 16:57 45.74339 16.06951 363 ft 38 kts 226°
2026-05-05 16:57 45.74159 16.06673 364 ft 38 kts 227°
2026-05-05 16:57 45.73982 16.06409 362 ft 30 kts 228°
2026-05-05 16:58 45.73875 16.06253 366 ft 13 kts 200°
2026-05-05 16:58 45.73819 16.06292 366 ft 9 kts 139°
2026-05-05 16:58 45.73816 16.06295 366 ft 0 kts 139°